SCP
0 0 0 0 0 0 0 0 0 0 0 0 0 0 0 0 0 0 0 0 0 0 0 0 0 0 0 0 0 0 0 0 0 0 0 0 0 0 0 0 0 0 0
0 0 0 0 0 0 0 0 0 0 0 0 0 0 0 0 0 0 0 0 0 0 0 0 0 0 0 0 0 0 0 0 0 0 0 0 0 0 0 0 0 0 0
0 0 0 0 0 0 0 0 0 0 0 0 0 0 0 0 0 0 0 0 0 0 0 0 0 0 0 0 0 0 0 0 0 0 0 0 0 0 0 0 0 0 0
0 0 0 0 0 0 0 0 0 0 0 0 0 0 0 0 0 0 0 0 0 0 0 0 0 0 0 0 0 0 0 0 0 0 0 0 0 0 0 0 0 0 0
0 0 0 0 0 0 0 0 0 0 0 0 0 0 0 0 0 0 0 0 0 0 0 0 0 0 0 0 0 0 0 0 0 0 0 0 0 0 0 0 0 0 0
0 0 0 0 0 0 0 0 0 0 0 0 0 0 0 0 0 0 0 0 0 0 0 0 0 0 0 0 0 0 0 0 0 0 0 0 0 0 0 0 0 0 0
0 0 0 0 0 0 0 0 0 0 0 0 0 0 0 0 0 0 0 0 0 0 0 0 0 0 0 0 0 0 0 0 0 0 0 0 0 0 0 0 0 0 0
0 0 0 0 0 0 0 0 0 0 0 0 0 0 0 0 0 0 0 0 0 0 0 0 0 0 0 0 0 0 0 0 0 0 0 0 0 0 0 0 0 0 0
0 0 0 0 0 0 0 0 0 0 0 0 0 0 0 0 0 0 0 0 0 0 0 0 0 0 0 0 0 0 0 0 0 0 0 0 0 0 0 0 0 0 0
0 0 0 0 0 0 0 0 0 0 0 0 0 0 0 0 0 0 0 0 0 0 0 0 0 0 0 0 0 0 0 0 0 0 0 0 0 0 0 0 0 0 0
0 0 0 0 0 0 0 0 0 0 0 0 0 0 0 0 0 0 0 0 0 0 0 0 0 0 0 0 0 0 0 0 0 0 0 0 0 0 0 0 0 0 0
0 0 0 0 0 0 0 0 0 0 0 0 0 0 0 0 0 0 0 0 0 0 0 0 0 0 0 0 0 0 0 0 0 0 0 0 0 0 0 0 0 0 0
0 0 0 0 0 0 0 0 0 0 0 0 0 0 0 0 0 0 0 0 0 0 0 0 0 0 0 0 0 0 0 0 0 0 0 0 0 0 0 0 0 0 0
0 0 0 0 0 0 0 0 0 0 0 0 0 0 0 0 0 0 0 0 0 0 0 0 0 0 0 0 0 0 0 0 0 0 0 0 0 0 0 0 0 0 0
0 0 0 0 0 0 0 0 0 0 0 0 0 0 0 0 0 0 0 0 0 0 0 0 0 0 0 0 0 0 0 0 0 0 0 0 0 0 0 0 0 0 0
0 0 0 0 0 0 0 0 0 0 0 0 0 0 0 0 0 0 0 0 0 0 0 0 0 0 0 0 0 0 0 0 0 0 0 0 0 0 0 0 0 0 0
0 0 0 0 0 0 0 0 0 0 0 0 0 0 0 0 0 0 0 0 0 0 0 0 0 0 0 0 0 0 0 0 0 0 0 0 0 0 0 0 0 0 0
0 0 0 0 0 0 0 0 0 0 0 0 0 0 0 0 0 0 0 0 0 0 0 0 0 0 0 0 0 0 0 0 0 0 0 0 0 0 0 0 0 0 0
0 0 0 0 0 0 0 0 0 0 0 0 0 0 0 0 0 0 0 0 0 0 0 0 0 0 0 0 0 0 0 0 0 0 0 0 0 0 0 0 0 0 0
0 0 0 0 0 0 0 0 0 0 0 0 0 0 0 0 0 0 0 0 0 0 0 0 0 0 0 0 0 0 0 0 0 0 0 0 0 0 0 0 0 0 0
0 0 0 0 0 0 0 0 0 0 0 0 0 0 0 0 0 0 0 0 0 0 0 0 0 0 0 0 0 0 0 0 0 0 0 0 0 0 0 0 0 0 0
0 0 0 0 0 0 0 0 0 0 0 0 0 0 0 0 0 0 0 0 0 0 0 0 0 0 0 0 0 0 0 0 0 0 0 0 0 0 0 0 0 0 0
0 0 0 0 0 0 0 0 0 0 0 0 0 0 0 0 0 0 0 0 0 0 0 0 0 0 0 0 0 0 0 0 0 0 0 0 0 0 0 0 0 0 0
0 0 0 0 0 0 0 0 0 0 0 0 0 0 0 0 0 0 0 0 0 0 0 0 0 0 0 0 0 0 0 0 0 0 0 0 0 0 0 0 0 0 0
0 0 0 0 0 0 0 0 0 0 0 0 0 0 0 0 0 0 0 0 0 0 0 0 0 0 0 0 0 0 0 0 0 0 0 0 0 0 0 0 0 0 0
0 0 0 0 0 0 0 0 0 0 0 0 0 0 0 0 0 0 0 0 0 0 0 0 0 0 0 0 0 0 0 0 0 0 0 0 0 0 0 0 0 0 0
Wind_Speed
1 1 1 1 1 1 1 1 1 1 1 1 1 1 1 2 2 3 2 4 4 4 6 7 7 7 7 8 8 8 8 8 8 8 8 8 8 8 7 8 8 8 7
1 1 1 1 1 1 1 1 1 1 1 1 1 1 1 1 2 3 2 2 4 4 4 6 7 7 7 8 8 8 8 7 7 7 7 7 7 7 6 7 6 6 6
1 1 1 1 1 1 1 1 1 1 1 1 1 1 1 1 1 2 2 2 2 3 4 4 6 6 7 7 8 8 7 7 7 7 7 6 6 6 6 6 6 5 5
1 1 1 1 1 1 1 1 0 1 1 1 1 1 1 0 0 1 1 2 2 2 2 4 4 5 6 6 6 7 7 6 6 6 6 6 6 5 5 5 5 5 4
1 1 1 1 1 1 1 1 0 0 0 0 1 1 1 1 0 1 1 2 2 2 2 3 3 3 4 5 6 6 6 6 5 5 5 5 5 4 5 5 4 4 4
1 1 1 1 1 1 0 0 0 0 0 0 0 1 1 1 0 1 1 1 2 2 2 2 2 2 3 3 5 5 6 5 5 4 4 4 4 4 4 4 3 3 3
1 0 1 1 1 1 1 0 0 0 0 0 1 1 1 1 1 1 1 1 2 2 3 3 2 2 2 2 3 4 5 5 5 4 3 3 4 3 3 3 3 2 2
1 1 0 1 1 1 1 0 0 0 1 0 1 1 0 1 1 2 2 2 2 2 2 3 3 2 2 2 2 3 3 4 4 4 3 3 3 3 3 2 2 1 1
1 1 1 1 1 1 1 1 1 1 1 1 1 1 2 2 1 1 2 3 3 2 2 3 3 3 2 2 2 3 2 3 4 4 3 3 3 3 3 2 2 1 1
1 1 1 1 1 1 1 2 1 1 2 2 1 1 1 1 1 0 1 2 3 3 3 3 3 3 3 2 2 3 3 3 4 4 3 3 3 3 2 2 2 1 1
1 1 1 1 1 1 2 2 2 2 2 2 1 1 1 1 1 2 1 1 1 2 3 3 3 3 3 2 2 2 3 3 4 4 4 3 2 2 2 2 2 1 0
1 2 2 2 2 2 2 2 2 3 3 3 2 2 2 2 2 1 2 2 2 2 2 2 3 3 3 3 2 3 3 3 3 4 4 3 2 2 2 2 2 1 1
2 2 2 2 2 2 2 2 3 3 3 3 3 3 3 2 2 1 2 2 1 1 1 2 3 3 3 3 3 4 4 4 3 3 4 3 2 1 1 2 2 2 1
2 3 3 3 3 3 3 3 3 3 3 3 4 4 3 3 2 2 2 2 1 2 1 2 1 2 2 2 3 4 4 4 4 3 4 4 3 2 2 2 2 2 2
3 3 3 3 4 4 4 3 3 4 3 4 5 4 3 3 3 2 2 3 3 3 3 3 2 2 2 2 3 3 3 5 5 5 4 4 3 3 2 2 2 2 2
3 4 4 4 4 4 4 4 4 4 4 4 4 4 4 3 3 3 3 2 2 3 3 2 1 1 2 2 3 3 4 5 6 6 5 4 4 4 3 3 2 3 3
3 4 4 4 4 4 4 4 4 5 5 5 5 5 5 4 4 3 3 3 3 3 4 2 1 1 2 2 3 3 3 4 4 6 6 5 5 5 4 4 3 3 3
4 4 4 4 4 4 4 5 5 5 6 6 5 5 5 4 5 4 4 4 3 3 4 4 2 2 2 3 3 3 3 3 3 6 7 6 5 6 5 5 4 4 4
4 4 4 4 4 4 5 5 5 5 6 6 6 6 6 5 6 5 5 4 4 4 3 4 3 2 2 2 2 2 3 3 3 4 6 6 6 6 6 5 5 4 4
4 4 4 4 4 4 5 5 5 5 6 6 6 6 6 6 7 6 5 5 5 4 4 4 3 2 2 2 2 3 3 3 3 2 4 5 6 6 6 6 6 5 5
4 4 4 4 4 4 5 5 5 5 6 6 6 6 6 8 9 7 6 6 6 5 4 4 3 2 2 3 3 3 3 2 2 2 2 3 3 3 4 6 6 6 6
4 4 4 4 5 5 7 8 6 5 5 6 6 6 6 7 9 10 10 9 8 7 6 5 4 5 5 4 3 3 2 2 3 2 2 3 3 4 4 4 6 7 7
3 4 4 4 5 6 8 8 8 5 5 6 6 6 5 6 8 6 8 9 9 10 9 6 6 6 6 5 4 4 4 3 3 2 2 3 3 4 3 4 7 7 7
3 4 4 4 4 6 8 9 9 6 5 6 7 7 6 6 7 7 6 6 6 7 7 6 6 6 5 4 5 5 4 2 1 2 2 3 3 3 3 3 6 7 7
4 4 4 4 4 5 8 8 8 4 5 6 7 7 7 7 10 10 7 7 6 5 6 7 7 7 7 7 5 2 3 3 3 3 2 2 2 2 2 3 4 7 7
3 4 4 3 4 4 7 7 6 3 4 4 5 6 8 9 10 10 8 7 7 6 5 4 4 5 5 6 7 6 5 5 3 3 3 2 2 1 1 2 2 3 4
Wind_Direction
20 13 18 10 17 360 343 337 344 338 327 10 57 51 58 81 105 105 104 103 112 127 144 146 143 138 134 133 127 122 116 111 108 106 104 100 95 93 93 92 89 87 86
19 8 4 1 354 347 338 324 326 327 322 18 54 56 42 49 91 112 122 118 116 119 131 149 147 143 141 144 140 133 127 123 117 114 112 107 99 96 96 94 90 88 86
15 357 355 343 326 333 339 335 339 355 352 17 45 53 48 33 67 116 134 140 141 131 127 133 145 143 143 149 147 142 135 126 123 122 119 113 106 99 95 96 93 88 84
1 3 347 313 302 325 340 313 341 15 0 21 46 40 42 1 79 110 127 131 140 142 142 136 134 142 143 143 146 143 139 134 129 127 125 121 113 105 97 94 89 86 80
346 353 315 292 291 310 312 291 359 78 18 12 52 53 49 327 221 112 121 125 132 134 137 147 142 128 131 146 151 145 138 136 131 130 130 132 128 120 110 102 93 87 80
307 321 298 306 302 288 294 297 41 35 172 276 41 36 36 293 214 134 158 143 146 143 135 141 155 145 122 136 149 151 147 142 140 134 133 134 133 135 130 119 110 100 89
297 251 277 297 304 275 256 242 170 130 355 51 78 37 343 252 200 173 171 162 173 163 153 152 147 146 155 146 155 156 154 150 152 146 144 148 151 149 144 137 133 119 104
304 294 253 258 285 287 277 267 113 199 257 210 144 140 161 277 243 192 172 181 186 173 165 157 154 155 160 164 172 163 158 158 162 159 154 162 168 168 160 157 151 146 134
292 287 263 251 256 269 241 239 221 185 217 254 207 169 168 205 223 218 196 189 185 183 180 170 166 168 161 155 167 159 159 178 175 177 171 175 182 182 181 182 179 156 115
264 269 258 248 242 242 251 244 233 230 203 229 257 271 215 174 172 208 250 206 192 185 188 182 175 177 171 164 162 162 165 185 185 183 184 186 193 196 201 203 189 178 159
247 243 258 254 242 241 246 252 237 234 224 219 226 242 261 280 247 170 220 229 223 211 192 192 183 178 177 173 174 162 168 185 195 192 191 197 197 203 209 213 212 209 207
250 233 244 245 242 238 235 246 245 239 234 231 229 224 214 208 210 188 204 207 218 228 207 199 190 184 176 174 170 152 163 179 191 190 187 199 207 216 220 216 217 225 255
255 238 244 240 242 242 237 243 240 240 234 227 225 229 229 229 220 210 200 219 249 257 205 212 200 185 175 173 181 170 177 178 187 200 197 197 199 229 254 248 233 234 256
252 241 240 235 238 241 244 246 245 235 235 228 231 228 226 228 223 211 197 187 228 266 233 213 195 179 176 178 186 174 182 187 200 211 215 209 210 227 251 263 267 251 260
254 244 242 238 238 233 231 234 241 233 230 230 228 223 223 223 217 221 213 193 188 218 238 220 192 193 183 174 185 180 184 199 213 214 221 221 216 220 231 241 264 268 264
251 247 245 238 240 236 230 229 238 233 229 238 230 222 225 217 215 213 214 220 210 209 236 231 219 194 194 198 192 189 201 208 217 220 219 224 218 216 219 230 248 258 263
255 253 251 244 243 240 234 229 235 234 228 236 235 224 224 215 211 213 210 217 224 214 232 256 258 207 192 199 192 199 207 202 209 220 221 222 222 220 218 229 240 250 252
258 256 258 254 248 242 238 231 236 239 226 226 229 224 222 219 213 214 211 215 222 218 215 232 244 218 216 206 195 201 211 215 207 219 220 223 224 223 221 227 237 246 248
273 269 259 252 249 242 241 240 236 239 232 225 225 225 221 216 218 216 213 217 222 227 215 209 234 229 217 210 201 213 210 212 216 214 218 224 227 226 227 229 230 237 243
275 270 265 257 254 247 242 242 239 236 231 227 226 227 222 218 217 214 216 217 219 219 210 201 216 228 214 204 199 202 210 210 214 223 231 228 227 229 234 233 231 231 235
273 271 266 261 259 253 243 239 238 232 227 228 228 227 226 221 223 222 220 211 211 212 205 201 207 221 220 196 207 207 216 223 223 213 206 220 218 219 225 230 229 229 237
275 271 264 260 255 253 258 255 248 239 230 228 230 230 231 224 224 230 234 234 228 216 204 202 211 209 221 216 209 214 207 212 236 210 194 231 218 223 221 216 233 238 241
277 272 268 264 261 257 260 260 253 248 232 229 227 225 230 228 223 216 227 233 239 239 228 212 206 211 213 212 205 211 213 214 233 220 208 234 217 229 229 231 233 237 241
283 278 278 276 268 265 264 261 260 249 237 232 229 223 222 225 225 215 213 219 223 228 225 219 210 215 219 212 208 212 215 226 247 236 205 234 221 232 240 231 237 239 245
289 283 281 277 274 274 268 264 260 241 234 233 232 226 222 222 230 227 212 211 219 226 231 226 222 223 229 230 221 196 200 211 243 243 212 206 220 240 238 234 236 233 240
289 292 291 288 278 279 276 271 260 235 235 235 231 228 230 227 231 230 209 205 215 218 208 216 222 224 221 222 226 212 203 210 223 238 211 191 210 179 253 243 221 218 236